カタログに戻る

SL-8 R/B

運用中PO
NORAD 8073·ROCKET BODY·🇷🇺 Russia

打ち上げ Aug 14, 1975 から Plesetsk Cosmodrome

Loading…

次のパス (今後24時間)

TLE

最新Source: Space-Track

元期: Sep 14, 2026, 15:09 UTC

1 08073U 75074B   26257.63181087  .00000085  00000-0  71199-4 0  9991
2 08073  82.9029 326.6105 0022458  58.3124 105.8371 13.76301724564326

AllMySatでSL-8 R/Bをリアルタイム追跡

Download on the App Store